CZ-11 R/B, 41847

Orbit data source: Space-Track

CZ-11 R/B, 41847 is space debris in SSO originally from a launch on Wed, 09 Nov 2016 UTC via a CHANG ZHENG 11 launch vehicle from the Jiuquan Satellite Launch Center, China (JSC). Debris objects in space refer to the collection of defunct objects orbiting the Earth. Examples of debris include non-operational satellites, rocket bodies, and fragments generated from explosions, collisions, or faulty payload assembly.

Loading next visibility...
Identifier
41847, 2016-066G
Orbit
SSO
Country
Flag of CNCN / PRC
Related business
Flag of CNXpeng Aeroht (CN)
Manufacturer
Kechuang Hangtian
Mission
Partially operational Commercial Technology
Bus & Motor
KS-1, Unknown motor
Mass
503 kg wet, 1 kg dry
Launch date (UTC)
2016-11-09 (9 years ago)
Launch vehicle
CHANG ZHENG 11
Launch site
Jiuquan Satellite Launch Center, China (JSC)
Object type
Payload
Rocket body
Debris
Shape & HBR
Box, Unknown HBR
Radar Cross Section
0.025 m², Large (>1 m²)

Expand to show TLE details & history
Last TLE update: 9 hours ago

TLE from 9 hours ago
0 CZ-11 R/B
1 41847U 16066G   25258.47941523  .00001299  00000-0  19441-3 0  9993
2 41847  98.4129 332.0709 0344204 242.1641 114.4280 14.43716712465146
Epoch: 2025-09-15T11:30Z
TLE epoch observation values (Epoch: 2025-09-15T11:30:21.475Z)
Latitude
0.00003°
Longitude
164.79794°
Altitude
857.482 km
Speed
7.367 km/s
True Right ascension
22h 08m 17s
True Declination
0° 00' 00"
Sunlit
Object was in full shadow at epoch
Visualization orbit readout
Latitude
Unknown
Longitude
Unknown
Altitude
Unknown
Speed
Unknown
Apparent Right ascension
Unknown
Apparent Declination
Unknown
Sunlit
N/A
Visualization observer readout
Local Sidereal Time
13:13:44
Azimuth
Unknown
Elevation
Unknown
Doppler factor
Unknown
Orbital elements
Apogee altitude
988.477 km
Perigee altitude
498.228 km
Semi-major axis
7,121.489 km
Eccentricity
0.03442
Inclination
98.4129°
RAAN
332.0709°
Arg. of periapsis
242.1641°
True anomaly
117.95415°
Mean anomaly
114.428°
Eccentric anomaly
116.19756°
Mean motion
3.61149 °/min
Orbital period
99.68 mins
BSTAR
0.00019441
Loading maneuver chart data...
Computing Atmospheric mass density...
Loading historical data...
Loading historical data...
Loading historical data...
Loading historical data...
Loading historical data...
Loading historical data...
Loading historical data...

Documentation

Showing up to 5 results
|